• In Hungary
  • List of Countries
  • For 7 days
  • Water Temperature
  • Satellite Maps
  • Weather Map
  • News
  • Weather Widgets
  • user-avatar
    Login

    Hourly Weather Verhnevodyanoy

    Today, 20 August, Monday

    Time Temperature Precipitation Wind Pressure Humidity
    00:00 +19°C° 0 mm 3 mps 752 mmHg 35%
    01:00 +19°C° 0 mm 3 mps 752 mmHg 37%
    02:00 +18°C° 0 mm 3 mps 752 mmHg 39%
    03:00 +17°C° 0 mm 2 mps 752 mmHg 39%
    04:00 +17°C° 0 mm 2 mps 752 mmHg 41%
    05:00 +17°C° 0 mm 3 mps 752 mmHg 42%
    06:00 +17°C° 0 mm 3 mps 752 mmHg 43%
    07:00 +19°C° 0 mm 4 mps 752 mmHg 39%
    08:00 +21°C° 0 mm 5 mps 752 mmHg 34%
    09:00 +23°C° 0 mm 5 mps 752 mmHg 30%
    10:00 +25°C° 0 mm 5 mps 752 mmHg 27%
    11:00 +27°C° 0 mm 5 mps 752 mmHg 25%
    12:00 +28°C° 0 mm 5 mps 752 mmHg 22%
    13:00 +29°C° 0 mm 5 mps 751 mmHg 21%
    14:00 +29°C° 0 mm 5 mps 751 mmHg 19%
    15:00 +30°C° 0 mm 5 mps 751 mmHg 18%
    16:00 +30°C° 0 mm 5 mps 751 mmHg 19%
    17:00 +29°C° 0 mm 5 mps 750 mmHg 20%
    18:00 +29°C° 0 mm 4 mps 750 mmHg 21%
    19:00 +27°C° 0 mm 4 mps 750 mmHg 23%
    20:00 +25°C° 0 mm 4 mps 750 mmHg 25%
    21:00 +24°C° 0 mm 3 mps 750 mmHg 27%
    22:00 +22°C° 0 mm 3 mps 750 mmHg 29%
    23:00 +21°C° 0 mm 3 mps 750 mmHg 30%

    Tomorrow, 21 August, Tuesday

    Time Temperature Precipitation Wind Pressure Humidity
    00:00 +21°C° 0 mm 3 mps 750 mmHg 32%
    01:00 +20°C° 0 mm 3 mps 750 mmHg 35%
    02:00 +19°C° 0 mm 3 mps 750 mmHg 39%
    03:00 +19°C° 0 mm 3 mps 750 mmHg 43%
    04:00 +19°C° 0 mm 3 mps 750 mmHg 47%
    05:00 +19°C° 0 mm 3 mps 750 mmHg 51%
    06:00 +18°C° 0 mm 3 mps 750 mmHg 55%
    07:00 +21°C° 0 mm 4 mps 750 mmHg 49%
    08:00 +23°C° 0 mm 4 mps 750 mmHg 43%
    09:00 +26°C° 0 mm 5 mps 750 mmHg 37%
    10:00 +27°C° 0 mm 5 mps 750 mmHg 33%
    11:00 +29°C° 0 mm 5 mps 750 mmHg 28%
    12:00 +30°C° 0 mm 6 mps 749 mmHg 23%
    13:00 +32°C° 0 mm 5 mps 749 mmHg 23%
    14:00 +32°C° 0 mm 5 mps 749 mmHg 22%
    15:00 +33°C° 0 mm 5 mps 748 mmHg 21%
    16:00 +32°C° 0 mm 5 mps 748 mmHg 23%
    17:00 +32°C° 0 mm 4 mps 748 mmHg 25%
    18:00 +30°C° 0 mm 4 mps 747 mmHg 27%
    19:00 +29°C° 0 mm 4 mps 747 mmHg 31%
    20:00 +27°C° 0 mm 3 mps 747 mmHg 34%
    21:00 +26°C° 0 mm 3 mps 748 mmHg 37%
    22:00 +25°C° 0 mm 3 mps 748 mmHg 39%
    23:00 +25°C° 0 mm 4 mps 748 mmHg 41%

    Day after tomorrow, 22 August, Wednesday

    Time Temperature Precipitation Wind Pressure Humidity
    00:00 +23°C° 0 mm 4 mps 748 mmHg 42%
    01:00 +23°C° 0 mm 4 mps 748 mmHg 46%
    02:00 +22°C° 0 mm 3 mps 748 mmHg 49%
    03:00 +21°C° 0 mm 3 mps 748 mmHg 53%
    04:00 +21°C° 0 mm 3 mps 748 mmHg 57%
    05:00 +21°C° 0 mm 3 mps 748 mmHg 61%
    06:00 +20°C° 0 mm 3 mps 748 mmHg 65%
    07:00 +22°C° 0 mm 3 mps 748 mmHg 59%
    08:00 +25°C° 0 mm 3 mps 748 mmHg 53%
    09:00 +27°C° 0 mm 3 mps 748 mmHg 48%
    10:00 +28°C° 0 mm 3 mps 748 mmHg 42%
    11:00 +30°C° 0 mm 2 mps 747 mmHg 37%
    12:00 +31°C° 0 mm 1 mps 747 mmHg 31%
    13:00 +32°C° 0 mm 1 mps 747 mmHg 29%
    14:00 +32°C° 0 mm 1 mps 747 mmHg 27%
    15:00 +33°C° 0 mm 1 mps 746 mmHg 25%
    16:00 +33°C° 0 mm 1 mps 746 mmHg 25%
    17:00 +33°C° 0 mm 1 mps 746 mmHg 25%
    18:00 +32°C° 0 mm 1 mps 746 mmHg 25%
    19:00 +31°C° 0 mm 1 mps 747 mmHg 27%
    20:00 +29°C° 0 mm 1 mps 747 mmHg 30%
    21:00 +28°C° 0 mm 1 mps 747 mmHg 32%
    22:00 +27°C° 0 mm 2 mps 748 mmHg 36%
    23:00 +26°C° 0 mm 4 mps 748 mmHg 40%

    23 August, Thursday

    Time Temperature Precipitation Wind Pressure Humidity
    00:00 +25°C° 0 mm 5 mps 748 mmHg 44%
    01:00 +23°C° 0 mm 5 mps 748 mmHg 46%
    02:00 +22°C° 0 mm 6 mps 748 mmHg 48%
    03:00 +22°C° 0 mm 6 mps 749 mmHg 51%
    04:00 +21°C° 0 mm 6 mps 749 mmHg 50%
    05:00 +21°C° 0 mm 6 mps 749 mmHg 49%
    06:00 +21°C° 0 mm 6 mps 750 mmHg 49%
    07:00 +22°C° 0 mm 6 mps 750 mmHg 45%
    08:00 +23°C° 0 mm 6 mps 750 mmHg 42%
    09:00 +24°C° 0 mm 6 mps 750 mmHg 39%
    10:00 +27°C° 0 mm 6 mps 750 mmHg 36%
    11:00 +28°C° 0 mm 6 mps 750 mmHg 32%
    12:00 +30°C° 0 mm 6 mps 750 mmHg 29%
    13:00 +30°C° 0 mm 6 mps 750 mmHg 28%
    14:00 +32°C° 0 mm 6 mps 750 mmHg 26%
    15:00 +32°C° 0 mm 5 mps 750 mmHg 24%
    16:00 +32°C° 0 mm 5 mps 750 mmHg 24%
    17:00 +30°C° 0 mm 5 mps 750 mmHg 24%
    18:00 +29°C° 0 mm 5 mps 750 mmHg 24%
    19:00 +28°C° 0 mm 5 mps 750 mmHg 24%
    20:00 +27°C° 0 mm 5 mps 750 mmHg 24%
    21:00 +25°C° 0 mm 5 mps 751 mmHg 23%
    22:00 +24°C° 0 mm 6 mps 751 mmHg 24%
    23:00 +23°C° 0 mm 6 mps 751 mmHg 24%

    24 August, Friday

    Time Temperature Precipitation Wind Pressure Humidity
    00:00 +23°C° 0 mm 6 mps 751 mmHg 24%
    01:00 +22°C° 0 mm 6 mps 751 mmHg 26%
    02:00 +22°C° 0 mm 6 mps 751 mmHg 27%
    03:00 +21°C° 0 mm 6 mps 751 mmHg 28%
    04:00 +21°C° 0 mm 6 mps 751 mmHg 30%
    05:00 +21°C° 0 mm 6 mps 751 mmHg 31%
    06:00 +20°C° 0 mm 6 mps 751 mmHg 32%
    07:00 +22°C° 0 mm 7 mps 751 mmHg 30%
    08:00 +23°C° 0 mm 7 mps 751 mmHg 28%
    09:00 +26°C° 0 mm 7 mps 751 mmHg 25%
    10:00 +27°C° 0 mm 7 mps 751 mmHg 24%
    11:00 +29°C° 0 mm 7 mps 751 mmHg 23%
    12:00 +30°C° 0 mm 7 mps 751 mmHg 22%
    13:00 +30°C° 0 mm 6 mps 750 mmHg 21%
    14:00 +32°C° 0 mm 6 mps 750 mmHg 21%
    15:00 +32°C° 0 mm 6 mps 749 mmHg 21%
    16:00 +30°C° 0 mm 6 mps 749 mmHg 21%
    17:00 +30°C° 0 mm 6 mps 749 mmHg 22%
    18:00 +29°C° 0 mm 5 mps 749 mmHg 22%
    19:00 +28°C° 0 mm 5 mps 749 mmHg 22%
    20:00 +26°C° 0 mm 5 mps 749 mmHg 23%
    21:00 +25°C° 0 mm 5 mps 750 mmHg 23%
    22:00 +23°C° 0 mm 5 mps 749 mmHg 24%
    23:00 +22°C° 0 mm 5 mps 749 mmHg 25%

    25 August, Saturday

    Time Temperature Precipitation Wind Pressure Humidity
    00:00 +22°C° 0 mm 5 mps 749 mmHg 26%
    01:00 +21°C° 0 mm 5 mps 749 mmHg 28%
    02:00 +21°C° 0 mm 5 mps 749 mmHg 30%
    03:00 +20°C° 0 mm 5 mps 749 mmHg 33%
    04:00 +20°C° 0 mm 5 mps 749 mmHg 35%
    05:00 +19°C° 0 mm 4 mps 750 mmHg 38%
    06:00 +19°C° 0 mm 4 mps 750 mmHg 40%
    07:00 +21°C° 0 mm 5 mps 750 mmHg 36%
    08:00 +23°C° 0 mm 5 mps 750 mmHg 32%
    09:00 +26°C° 0 mm 6 mps 750 mmHg 27%
    10:00 +27°C° 0 mm 6 mps 750 mmHg 25%
    11:00 +28°C° 0 mm 6 mps 749 mmHg 22%
    12:00 +29°C° 0 mm 6 mps 749 mmHg 19%
    13:00 +30°C° 0 mm 6 mps 749 mmHg 18%
    14:00 +30°C° 0 mm 6 mps 748 mmHg 17%
    15:00 +32°C° 0 mm 6 mps 748 mmHg 16%
    16:00 +30°C° 0 mm 5 mps 748 mmHg 17%
    17:00 +29°C° 0 mm 5 mps 748 mmHg 17%
    18:00 +29°C° 0 mm 5 mps 748 mmHg 18%
    19:00 +27°C° 0 mm 5 mps 748 mmHg 18%
    20:00 +26°C° 0 mm 4 mps 748 mmHg 19%
    21:00 +23°C° 0 mm 4 mps 748 mmHg 20%
    22:00 +23°C° 0 mm 4 mps 748 mmHg 21%
    23:00 +22°C° 0 mm 4 mps 748 mmHg 22%
    Show more